Location: Bay Ridge
(40.6340°N, 74.0146°W)
Time: 00:24:53
(UTC+00:00)

Cosmos 1833 Rocket - Pass Details

Date: 15 November 2019
Orbit: 832 x 840 km, 71.0° (Epoch: 15 December)

Event Time Altitude Azimuth Distance (km) Brightness Sun altitude
Exits shadow 10:17:45 18° 318° (NW) 1,943 4.1 -16.1°
Drops below altitude 10° 10:20:58 10° 352° (N) 2,450 4.9 -15.5°
Sets 10:24:14 0° 11° (NNE) 3,390 5.8 -14.9°
